When you browse on this site, cookies collect data to enhance your experience and personalize the content and advertising you see.
Visit our Privacy Policy to learn more. By continuing to use the site, you agree to this use of cookies and data.
  • In Latvia
  • List of Countries
  • For 7 days
  • Water Temperature
  • Weather Map
  • Weather Widgets
  • user-avatar
    Login

    Hourly Weather Oklahoma City

    Today, 22 October, Tuesday

    Time Temperature Precipitation Wind Pressure Humidity
    00:00 +10°C° 0 mm 2 mps 730 mmHg 35%
    01:00 +9°C° 0 mm 2 mps 731 mmHg 36%
    02:00 +9°C° 0 mm 2 mps 731 mmHg 36%
    03:00 +9°C° 0 mm 2 mps 731 mmHg 36%
    04:00 +8°C° 0 mm 2 mps 732 mmHg 36%
    05:00 +8°C° 0 mm 2 mps 732 mmHg 37%
    06:00 +10°C° 0 mm 3 mps 733 mmHg 37%
    07:00 +11°C° 0 mm 3 mps 733 mmHg 37%
    08:00 +13°C° 0 mm 3 mps 734 mmHg 37%
    09:00 +15°C° 0 mm 4 mps 734 mmHg 33%
    10:00 +18°C° 0 mm 4 mps 734 mmHg 30%
    11:00 +20°C° 0 mm 4 mps 733 mmHg 26%
    12:00 +20°C° 0 mm 4 mps 733 mmHg 26%
    13:00 +21°C° 0 mm 4 mps 732 mmHg 25%
    14:00 +21°C° 0 mm 4 mps 731 mmHg 24%
    15:00 +20°C° 0 mm 4 mps 731 mmHg 28%
    16:00 +18°C° 0 mm 3 mps 731 mmHg 31%
    17:00 +16°C° 0 mm 2 mps 731 mmHg 35%
    18:00 +15°C° 0 mm 2 mps 730 mmHg 37%
    19:00 +13°C° 0 mm 3 mps 730 mmHg 40%
    20:00 +13°C° 0 mm 4 mps 730 mmHg 42%
    21:00 +13°C° 0 mm 5 mps 730 mmHg 43%
    22:00 +13°C° 0 mm 5 mps 730 mmHg 43%
    23:00 +13°C° 0 mm 6 mps 729 mmHg 43%

    Tomorrow, 23 October, Wednesday

    Time Temperature Precipitation Wind Pressure Humidity
    00:00 +12°C° 0 mm 7 mps 729 mmHg 46%
    01:00 +12°C° 0 mm 7 mps 729 mmHg 48%
    02:00 +12°C° 0 mm 7 mps 728 mmHg 51%
    03:00 +12°C° 0 mm 7 mps 728 mmHg 54%
    04:00 +11°C° 0 mm 7 mps 728 mmHg 56%
    05:00 +11°C° 0 mm 7 mps 728 mmHg 59%
    06:00 +12°C° 0 mm 8 mps 728 mmHg 57%
    07:00 +15°C° 0 mm 9 mps 728 mmHg 55%
    08:00 +16°C° 0 mm 9 mps 728 mmHg 53%
    09:00 +18°C° 0 mm 9 mps 728 mmHg 50%
    10:00 +19°C° 0 mm 9 mps 728 mmHg 48%
    11:00 +22°C° 0 mm 9 mps 728 mmHg 45%
    12:00 +23°C° 0 mm 8 mps 727 mmHg 44%
    13:00 +23°C° 0 mm 7 mps 727 mmHg 44%
    14:00 +24°C° 0 mm 7 mps 726 mmHg 43%
    15:00 +23°C° 0 mm 5 mps 727 mmHg 47%
    16:00 +22°C° 0 mm 3 mps 727 mmHg 51%
    17:00 +21°C° 0 mm 2 mps 727 mmHg 55%
    18:00 +20°C° 0 mm 2 mps 728 mmHg 56%
    19:00 +20°C° 0 mm 2 mps 728 mmHg 57%
    20:00 +19°C° 0 mm 3 mps 729 mmHg 57%
    21:00 +19°C° 0 mm 4 mps 729 mmHg 57%
    22:00 +17°C° 0 mm 5 mps 729 mmHg 58%
    23:00 +16°C° 0 mm 6 mps 729 mmHg 58%

    Day after tomorrow, 24 October, Thursday

    Time Temperature Precipitation Wind Pressure Humidity
    00:00 +16°C° 0.2 mm 6 mps 730 mmHg 57%
    01:00 +15°C° 0.2 mm 7 mps 730 mmHg 57%
    02:00 +15°C° 0.2 mm 7 mps 730 mmHg 57%
    03:00 +12°C° 0 mm 8 mps 731 mmHg 59%
    04:00 +11°C° 0 mm 9 mps 731 mmHg 62%
    05:00 +9°C° 0 mm 10 mps 732 mmHg 64%
    06:00 +8°C° 0.3 mm 9 mps 732 mmHg 66%
    07:00 +7°C° 0.3 mm 9 mps 733 mmHg 68%
    08:00 +7°C° 0.3 mm 9 mps 734 mmHg 70%
    09:00 +6°C° 0.5 mm 9 mps 734 mmHg 71%
    10:00 +6°C° 0.5 mm 8 mps 734 mmHg 72%
    11:00 +5°C° 0.5 mm 8 mps 735 mmHg 74%
    12:00 +5°C° 1.1 mm 7 mps 735 mmHg 74%
    13:00 +6°C° 1.1 mm 7 mps 735 mmHg 75%
    14:00 +6°C° 1.1 mm 7 mps 735 mmHg 76%
    15:00 +7°C° 0.3 mm 6 mps 735 mmHg 74%
    16:00 +7°C° 0.3 mm 5 mps 735 mmHg 72%
    17:00 +7°C° 0.3 mm 4 mps 736 mmHg 70%
    18:00 +6°C° 0 mm 4 mps 736 mmHg 72%
    19:00 +5°C° 0 mm 4 mps 736 mmHg 73%
    20:00 +4°C° 0 mm 4 mps 736 mmHg 75%
    21:00 +4°C° 0 mm 3 mps 736 mmHg 76%
    22:00 +3°C° 0 mm 3 mps 736 mmHg 77%
    23:00 +4°C° 0 mm 2 mps 736 mmHg 77%

    25 October, Friday

    Time Temperature Precipitation Wind Pressure Humidity
    00:00 +4°C° 0 mm 2 mps 736 mmHg 76%
    01:00 +4°C° 0 mm 2 mps 736 mmHg 75%
    02:00 +4°C° 0 mm 2 mps 736 mmHg 73%
    03:00 +4°C° 0 mm 2 mps 736 mmHg 71%
    04:00 +3°C° 0 mm 2 mps 737 mmHg 69%
    05:00 +3°C° 0 mm 2 mps 737 mmHg 67%
    06:00 +5°C° 0 mm 2 mps 737 mmHg 61%
    07:00 +6°C° 0 mm 2 mps 738 mmHg 55%
    08:00 +8°C° 0 mm 2 mps 738 mmHg 49%
    09:00 +10°C° 0 mm 2 mps 738 mmHg 44%
    10:00 +13°C° 0 mm 2 mps 738 mmHg 39%
    11:00 +15°C° 0 mm 2 mps 737 mmHg 34%
    12:00 +16°C° 0 mm 3 mps 737 mmHg 33%
    13:00 +17°C° 0 mm 3 mps 736 mmHg 32%
    14:00 +18°C° 0 mm 3 mps 735 mmHg 31%
    15:00 +16°C° 0 mm 3 mps 735 mmHg 35%
    16:00 +14°C° 0 mm 2 mps 735 mmHg 39%
    17:00 +13°C° 0 mm 2 mps 734 mmHg 44%
    18:00 +12°C° 0 mm 2 mps 734 mmHg 47%
    19:00 +10°C° 0 mm 3 mps 734 mmHg 50%
    20:00 +9°C° 0 mm 3 mps 734 mmHg 53%
    21:00 +8°C° 0 mm 3 mps 734 mmHg 55%
    22:00 +7°C° 0 mm 4 mps 734 mmHg 56%
    23:00 +6°C° 0 mm 4 mps 734 mmHg 58%

    26 October, Saturday

    Time Temperature Precipitation Wind Pressure Humidity
    00:00 +6°C° 0 mm 4 mps 734 mmHg 60%
    01:00 +6°C° 0 mm 4 mps 734 mmHg 61%
    02:00 +5°C° 0 mm 4 mps 733 mmHg 63%
    03:00 +5°C° 0 mm 4 mps 733 mmHg 63%
    04:00 +5°C° 0 mm 4 mps 733 mmHg 64%
    05:00 +5°C° 0 mm 4 mps 733 mmHg 64%
    06:00 +6°C° 0 mm 5 mps 733 mmHg 60%
    07:00 +8°C° 0 mm 5 mps 733 mmHg 57%
    08:00 +9°C° 0 mm 6 mps 733 mmHg 53%
    09:00 +11°C° 0 mm 6 mps 732 mmHg 49%
    10:00 +14°C° 0 mm 6 mps 732 mmHg 45%
    11:00 +17°C° 0 mm 7 mps 731 mmHg 40%
    12:00 +17°C° 0 mm 7 mps 730 mmHg 39%
    13:00 +18°C° 0 mm 7 mps 730 mmHg 38%
    14:00 +20°C° 0 mm 7 mps 729 mmHg 37%
    15:00 +17°C° 0 mm 7 mps 728 mmHg 43%
    16:00 +15°C° 0 mm 7 mps 728 mmHg 48%
    17:00 +14°C° 0 mm 6 mps 727 mmHg 53%
    18:00 +12°C° 0 mm 7 mps 727 mmHg 54%
    19:00 +11°C° 0 mm 7 mps 727 mmHg 55%
    20:00 +11°C° 0 mm 8 mps 727 mmHg 56%
    21:00 +10°C° 0 mm 8 mps 727 mmHg 57%
    22:00 +10°C° 0 mm 8 mps 727 mmHg 57%
    23:00 +10°C° 0 mm 8 mps 727 mmHg 58%

    27 October, Sunday

    Time Temperature Precipitation Wind Pressure Humidity
    00:00 +9°C° 0 mm 8 mps 727 mmHg 59%
    01:00 +9°C° 0 mm 8 mps 726 mmHg 60%
    02:00 +9°C° 0 mm 8 mps 726 mmHg 62%
    03:00 +7°C° 0 mm 8 mps 726 mmHg 63%
    04:00 +8°C° 0 mm 7 mps 726 mmHg 64%
    05:00 +6°C° 0 mm 7 mps 726 mmHg 66%
    06:00 +8°C° 0 mm 7 mps 727 mmHg 64%
    07:00 +9°C° 0 mm 7 mps 727 mmHg 61%
    08:00 +10°C° 0 mm 7 mps 728 mmHg 59%
    09:00 +13°C° 0 mm 6 mps 728 mmHg 54%
    10:00 +15°C° 0 mm 5 mps 728 mmHg 49%
    11:00 +19°C° 0 mm 5 mps 728 mmHg 43%
    12:00 +19°C° 0 mm 4 mps 728 mmHg 41%
    13:00 +20°C° 0 mm 3 mps 728 mmHg 40%
    14:00 +21°C° 0 mm 2 mps 728 mmHg 38%
    15:00 +19°C° 0 mm 2 mps 729 mmHg 45%
    16:00 +17°C° 0 mm 2 mps 729 mmHg 51%
    17:00 +15°C° 0 mm 2 mps 729 mmHg 58%
    18:00 +14°C° 0 mm 2 mps 730 mmHg 64%
    19:00 +12°C° 0 mm 3 mps 731 mmHg 70%
    20:00 +11°C° 0 mm 3 mps 731 mmHg 76%
    21:00 +11°C° 0 mm 3 mps 732 mmHg 73%
    22:00 +10°C° 0 mm 4 mps 733 mmHg 71%
    23:00 +9°C° 0 mm 5 mps 733 mmHg 69%

    28 October, Monday

    Time Temperature Precipitation Wind Pressure Humidity
    00:00 +8°C° 0 mm 5 mps 733 mmHg 67%
    01:00 +7°C° 0 mm 5 mps 734 mmHg 66%
    02:00 +7°C° 0 mm 5 mps 734 mmHg 64%
    03:00 +6°C° 0 mm 5 mps 734 mmHg 61%
    04:00 +6°C° 0 mm 5 mps 734 mmHg 58%
    05:00 +5°C° 0 mm 5 mps 734 mmHg 55%
    06:00 +6°C° 0 mm 5 mps 735 mmHg 52%
    07:00 +7°C° 0 mm 6 mps 735 mmHg 50%
    08:00 +8°C° 0 mm 6 mps 736 mmHg 48%
    09:00 +9°C° 0 mm 6 mps 736 mmHg 47%
    10:00 +11°C° 0 mm 6 mps 735 mmHg 46%
    11:00 +13°C° 0 mm 6 mps 735 mmHg 46%
    12:00 +14°C° 0 mm 5 mps 735 mmHg 47%
    13:00 +14°C° 0 mm 5 mps 734 mmHg 47%
    14:00 +14°C° 0 mm 5 mps 734 mmHg 48%
    15:00 +13°C° 0 mm 5 mps 733 mmHg 52%
    16:00 +11°C° 0 mm 4 mps 733 mmHg 56%
    17:00 +10°C° 0 mm 4 mps 733 mmHg 60%
    18:00 +9°C° 0 mm 3 mps 733 mmHg 60%
    19:00 +8°C° 0 mm 3 mps 733 mmHg 61%
    20:00 +7°C° 0 mm 3 mps 733 mmHg 62%
    21:00 +7°C° 0 mm 3 mps 734 mmHg 61%
    22:00 +7°C° 0 mm 3 mps 734 mmHg 60%
    23:00 +7°C° 0 mm 3 mps 734 mmHg 59%
    Show more